Wind_Speed
2 4 6 10 8 4 5 4 3 2 3 4 7 7 11 11 8 10 11 10 11 11 21 24 27 33 39 41 41 44 44 46 45 42 40 40 41 39 40 42 40 39 40 43
5 4 8 2 4 4 3 2 4 2 1 3 4 10 10 8 10 9 9 10 13 8 8 18 28 24 30 41 44 44 45 45 48 43 43 36 35 38 40 41 40 39 40 42
6 4 6 6 5 6 5 5 3 4 1 1 3 8 6 5 4 6 8 10 7 11 11 9 13 21 26 32 42 45 47 47 47 46 36 34 29 32 35 41 42 43 43 41
4 3 5 5 5 5 5 5 3 2 3 4 2 5 5 7 10 7 11 6 9 9 7 7 10 14 19 28 35 42 43 44 45 44 39 40 36 31 34 32 39 42 40 42
7 6 5 4 6 5 6 3 2 2 3 2 3 1 7 4 8 10 9 6 7 7 1 5 5 7 12 16 22 32 38 39 41 43 44 43 34 30 28 30 31 37 39 37
5 1 5 7 3 2 6 6 7 5 3 3 7 6 5 4 4 4 5 6 7 8 8 8 9 11 13 12 12 17 27 34 36 39 42 42 37 33 30 31 33 34 36 40
1 1 1 4 5 4 4 6 2 3 2 6 2 2 7 7 6 2 6 6 8 7 7 9 10 15 16 15 12 8 14 23 28 32 36 40 42 40 39 38 38 36 36 38
7 3 7 5 7 9 7 8 6 7 4 4 1 5 5 1 4 5 6 5 6 8 7 7 7 9 11 12 10 8 8 14 20 25 30 33 37 39 40 39 39 39 39 40
6 5 1 1 4 8 5 4 5 6 3 3 4 5 10 6 4 6 7 7 7 7 6 8 11 11 10 6 6 8 9 10 12 17 21 26 29 33 37 38 38 38 38 39
7 3 1 1 3 3 5 7 3 3 2 4 4 4 6 3 3 8 9 8 8 8 9 7 8 12 14 11 9 8 8 10 10 13 18 22 26 30 33 35 37 38 38 37
6 4 2 4 5 8 3 3 2 5 5 5 1 5 7 5 9 7 5 6 7 7 6 6 10 13 13 14 11 10 8 6 9 12 15 20 23 26 29 33 36 36 36 36
4 5 4 5 2 2 3 6 6 5 4 3 3 7 5 8 9 6 6 5 5 6 8 7 9 11 14 15 16 15 14 13 13 14 16 18 20 22 26 30 33 33 34 35
6 1 3 4 3 1 2 1 3 4 3 6 4 5 3 8 6 5 4 4 5 6 8 8 9 13 18 19 22 20 19 20 19 18 20 22 23 24 26 29 30 32 33 34
5 3 5 7 4 3 5 3 3 3 3 4 13 10 11 11 10 14 13 12 10 8 7 6 7 13 23 26 23 23 22 22 23 23 24 26 27 28 29 28 28 29 30 32
3 4 2 3 5 4 5 6 5 5 4 4 1 9 5 7 10 10 5 7 7 8 9 8 8 9 18 23 27 27 24 22 21 21 24 28 29 30 30 30 29 28 29 31
4 2 2 2 4 5 5 10 8 8 5 11 7 20 12 10 5 6 6 7 6 6 6 8 9 13 16 20 23 26 27 28 27 27 26 27 29 30 31 31 30 27 27 28
4 5 3 2 4 4 7 10 13 8 6 9 11 17 4 3 3 3 4 3 3 5 6 7 7 12 18 22 24 26 29 30 30 29 30 27 25 27 29 29 27 27 26 25
7 6 3 3 2 3 6 2 3 12 9 10 7 2 2 4 4 7 6 4 6 4 4 5 10 19 21 22 24 26 27 28 29 31 29 26 25 24 24 23 22 22 23 24
1 4 2 5 4 6 8 6 7 8 8 7 6 4 1 5 5 2 7 7 3 4 6 8 12 16 22 21 21 24 29 26 27 27 29 31 28 26 23 22 21 20 20 20
1 3 4 3 5 8 6 2 3 4 4 7 5 5 2 2 4 4 7 4 3 9 10 13 15 18 19 21 20 22 23 27 25 28 30 28 29 26 22 19 17 16 17 17
5 4 10 4 3 8 10 6 3 5 7 4 6 4 4 4 5 8 6 4 5 8 11 12 15 17 18 19 21 23 21 22 26 27 27 26 24 23 21 17 14 13 11 14
7 7 5 4 6 11 7 5 8 4 1 5 4 4 6 7 9 9 11 3 3 10 14 15 17 18 18 17 18 20 23 22 23 23 24 25 23 20 17 13 13 12 9 8
2 6 6 9 7 5 4 4 3 5 5 4 2 5 5 7 7 7 8 7 4 8 12 14 15 20 19 16 16 20 22 22 23 23 21 21 21 19 14 11 11 10 7 6
4 4 3 3 6 6 2 2 1 4 3 3 5 7 5 7 8 8 7 8 6 8 11 12 14 17 21 18 17 17 19 20 21 19 20 17 16 18 14 11 8 6 9 6
5 5 5 3 5 2 3 3 5 5 7 6 7 7 9 7 10 6 5 4 11 11 9 10 12 15 20 19 19 18 19 18 20 18 14 13 12 12 11 10 5 4 4 6
5 6 5 5 4 4 5 6 6 7 7 7 7 7 5 7 8 4 5 9 10 10 10 12 13 15 18 19 21 19 17 17 18 17 16 14 12 10 9 5 4 6 3 4
Wind_Direction
49 103 191 202 193 132 148 153 177 236 206 155 226 255 265 275 290 266 256 253 257 247 256 259 248 239 233 232 229 227 224 223 218 212 211 217 218 223 231 229 227 225 224 223
43 212 218 176 175 181 218 226 235 293 72 165 277 267 256 254 256 243 252 255 246 253 260 261 255 245 235 233 231 229 226 223 219 213 215 215 218 223 228 232 230 229 227 225
160 231 146 180 174 161 179 175 200 217 15 284 329 292 311 293 245 272 257 246 260 244 258 271 269 256 245 236 233 229 228 224 222 216 211 213 216 223 227 230 236 231 228 227
211 245 127 155 184 143 184 205 183 176 78 239 52 284 305 270 291 284 282 332 280 273 270 271 279 277 255 248 241 234 229 225 224 218 212 211 214 216 225 227 230 232 227 227
230 180 174 159 205 155 212 151 138 106 119 34 324 68 273 290 277 285 294 308 14 12 313 309 295 310 303 268 256 243 234 227 223 219 218 218 217 224 228 228 230 234 230 225
190 33 152 188 87 148 139 75 44 50 69 297 213 169 286 221 223 328 30 55 17 9 9 357 349 354 356 339 297 257 238 231 229 226 223 225 222 223 227 229 231 232 234 233
9 185 111 134 84 50 87 86 334 339 356 230 52 139 246 264 245 296 33 17 2 4 7 358 352 345 347 342 336 285 243 237 232 230 230 232 233 235 237 238 239 237 236 236
154 228 176 189 172 174 185 155 162 199 200 269 262 236 244 255 282 4 17 81 58 18 4 347 332 354 351 343 330 323 279 250 240 235 235 238 240 242 244 247 247 248 246 246
160 244 16 103 144 148 187 186 166 104 28 54 236 290 306 317 37 77 55 45 12 29 351 5 356 21 16 355 334 319 298 274 257 252 249 246 247 246 248 250 252 252 254 254
198 137 344 208 133 43 157 162 80 0 149 254 258 250 220 195 177 62 39 31 21 8 3 346 329 348 355 353 345 315 293 278 268 257 252 252 251 251 252 253 252 253 256 255
149 116 260 136 202 167 137 163 109 129 156 182 254 258 222 214 113 111 72 40 32 1 323 317 321 336 336 334 335 318 283 298 275 261 256 254 255 253 252 252 254 255 257 257
192 133 158 193 327 202 157 176 154 152 234 232 159 250 136 116 114 107 81 42 349 336 318 307 310 316 316 317 308 301 313 286 271 265 261 261 265 262 259 258 260 261 260 261
169 165 75 8 -0 22 151 89 195 117 91 208 149 250 201 104 112 182 196 271 292 309 327 331 349 329 324 320 322 306 296 291 289 279 272 271 271 272 269 267 266 264 263 261
102 106 159 182 143 110 117 7 12 147 152 166 231 266 260 351 -0 326 339 343 341 336 343 339 341 338 343 352 351 340 320 308 299 290 281 275 275 277 280 282 277 270 266 263
74 112 99 105 134 119 179 221 220 205 178 194 355 293 288 301 284 298 321 348 357 6 9 3 0 349 352 354 349 346 345 342 335 315 298 286 286 285 285 284 283 277 271 267
15 121 79 36 185 176 220 227 239 239 214 256 257 269 290 288 19 20 6 11 21 356 345 339 338 340 344 344 338 334 333 331 327 317 309 305 301 296 290 286 285 282 277 271
115 123 105 257 346 111 301 224 201 206 202 220 240 249 340 43 84 313 326 37 341 320 313 320 316 322 333 335 334 330 328 327 325 320 315 309 304 300 296 292 285 282 280 274
135 124 116 155 26 219 243 332 255 220 234 217 247 134 179 262 247 239 221 223 266 292 285 307 320 326 331 330 328 326 327 328 327 325 325 325 320 311 306 301 292 286 280 272
72 122 83 145 189 298 286 239 175 170 249 210 200 132 146 306 321 257 191 220 236 280 288 305 326 323 323 327 327 326 326 327 327 326 326 325 323 317 313 306 302 297 286 275
42 62 126 118 146 211 237 322 132 94 283 185 163 157 193 22 355 251 240 260 285 330 334 329 329 326 325 325 328 329 330 328 329 328 325 322 320 317 311 309 306 303 301 289
173 171 201 169 200 279 242 240 355 103 238 184 166 179 176 201 212 261 313 308 318 324 332 328 325 324 327 330 329 327 327 331 327 325 321 320 316 313 312 313 312 301 298 294
163 161 201 155 200 258 162 107 173 202 90 161 199 221 244 255 281 291 299 277 308 318 327 328 321 322 329 330 327 324 321 326 325 323 322 318 315 312 311 312 305 297 296 280
199 183 177 181 202 231 189 155 180 164 155 194 217 271 236 247 254 275 286 304 282 301 314 317 315 318 326 331 326 317 317 320 323 323 320 320 315 311 306 302 291 290 279 260
244 159 193 101 228 218 203 205 208 174 162 260 231 257 265 262 272 264 273 290 316 310 318 324 316 316 316 325 317 308 309 314 316 313 316 321 319 312 304 286 280 279 279 260
201 141 178 254 277 184 218 182 147 206 245 248 250 225 235 237 265 248 260 261 295 306 307 305 300 299 302 309 306 308 307 310 310 309 309 306 303 301 300 305 302 310 283 297
171 179 193 220 190 131 257 292 330 315 294 288 292 290 250 233 251 271 272 279 285 289 302 299 294 289 294 298 301 306 303 303 298 294 285 280 273 269 274 276 295 80 31 66
Height
806 820 827 818 818 816 824 824 822 818 814 820 826 826 819 809 808 807 803 800 798 794 782 783 785 787 790 794 797 799 802 805 810 813 816 819 820 824 827 829 833 836 838 841
819 824 811 812 815 815 820 822 826 820 817 820 822 821 814 809 802 795 794 792 789 786 782 776 777 780 782 784 787 791 793 797 800 805 808 813 816 818 822 824 827 830 832 835
818 808 804 811 813 818 820 826 823 824 822 822 826 828 814 799 797 788 786 783 782 781 778 774 774 774 776 777 779 782 785 788 792 797 803 807 812 814 816 817 820 823 827 830
810 802 806 811 814 814 822 814 815 819 831 844 828 849 825 805 798 790 781 785 780 776 776 772 770 770 771 770 773 776 780 782 787 792 796 798 801 804 806 811 815 818 822 824
810 804 807 811 810 809 817 813 815 819 834 836 838 848 825 814 802 791 782 780 777 774 772 771 769 769 767 768 769 772 775 779 782 786 789 792 796 800 803 807 810 813 817 819
803 799 801 805 810 806 813 821 832 842 846 853 839 837 833 810 794 783 780 780 781 778 777 775 773 772 771 770 769 770 772 775 779 782 786 788 791 795 798 801 804 807 810 813
805 803 802 803 813 811 816 828 853 857 867 853 838 842 826 798 792 785 786 788 785 783 781 779 776 774 772 771 770 770 772 774 777 780 783 785 788 790 792 794 797 799 803 804
817 820 807 801 805 813 821 824 849 861 863 847 838 835 806 791 791 791 788 788 787 786 784 782 779 776 774 773 772 772 773 773 775 778 780 783 785 786 787 789 792 793 794 796
811 807 800 799 799 800 817 825 821 843 905 871 835 820 798 789 792 794 793 790 791 786 787 782 778 775 775 775 774 774 773 774 775 777 778 780 782 783 782 784 786 787 788 790
791 804 806 801 798 803 804 811 832 849 857 866 834 827 813 788 796 793 794 795 792 790 788 785 784 780 777 776 775 775 774 773 773 774 775 775 775 776 777 778 778 778 780 782
784 794 809 804 807 808 811 814 816 824 838 852 858 822 799 788 792 799 796 794 796 795 792 789 784 782 780 778 775 774 774 770 771 771 772 772 771 772 772 771 771 772 774 775
782 796 818 803 801 798 798 804 808 824 834 844 837 810 788 791 799 796 798 797 794 792 789 786 784 783 781 779 778 775 772 771 770 770 769 768 769 769 769 768 768 769 770 770
781 800 823 811 805 800 800 802 801 811 824 833 838 805 795 794 798 797 796 796 795 792 790 786 782 780 778 777 773 773 772 770 769 769 768 766 765 765 763 762 762 763 764 764
782 797 798 801 804 805 812 820 813 809 839 822 803 792 788 793 797 791 792 790 791 791 790 788 786 784 781 778 775 773 772 770 768 766 765 763 761 759 758 757 757 756 757 756
787 811 801 801 805 804 810 815 815 815 816 820 808 805 797 799 798 795 796 798 798 798 796 793 790 787 784 779 777 776 773 770 767 763 762 759 758 756 754 751 749 749 748 747
796 810 805 816 809 809 813 810 807 807 808 804 808 798 789 790 795 800 802 802 802 802 800 798 794 790 786 783 779 775 772 769 767 763 759 757 754 751 748 746 744 742 741 741
805 808 819 834 827 817 827 805 806 801 798 792 800 789 793 798 802 803 802 802 802 802 799 797 795 792 788 784 780 776 770 767 764 760 757 753 749 745 743 741 738 737 736 735
807 820 837 859 854 837 800 799 794 795 791 792 790 794 799 799 800 801 801 800 799 799 797 796 794 790 787 783 779 774 770 765 760 757 754 751 747 742 738 735 733 732 731 730
800 814 844 847 882 833 801 792 798 799 796 790 791 795 796 797 797 794 796 795 793 794 792 791 791 789 785 781 777 773 769 764 759 754 750 748 745 739 735 731 729 727 725 723
805 806 821 891 883 868 802 785 783 786 809 795 795 796 796 797 805 801 791 790 791 790 790 788 786 785 782 778 773 769 765 763 757 753 748 745 743 739 733 729 725 723 724 724
804 808 808 861 870 839 796 791 789 823 802 800 795 792 795 801 797 786 786 788 789 788 786 785 783 780 778 775 771 765 761 758 756 751 747 745 742 737 734 729 726 724 720 722
805 815 819 815 818 822 788 793 798 793 790 791 793 792 793 793 789 787 782 784 785 784 782 780 778 776 774 770 767 764 761 757 754 749 745 744 740 736 732 727 727 724 720 720
800 793 807 804 796 780 782 781 782 785 789 789 790 790 790 790 788 786 782 779 779 781 780 778 776 772 770 767 764 760 758 755 750 747 743 740 739 736 730 727 725 724 720 719
786 785 792 793 780 781 780 780 780 783 785 786 787 787 787 786 783 782 781 778 777 777 776 775 773 769 766 763 761 759 755 751 748 744 740 735 735 735 732 729 725 722 725 720
782 784 793 796 779 780 780 781 782 784 785 785 784 783 782 782 779 778 777 776 774 773 772 770 768 765 761 759 757 755 752 748 745 741 737 735 734 733 733 732 726 721 722 724
777 776 779 787 777 777 778 775 777 779 779 777 778 776 775 776 775 774 772 770 770 769 768 767 765 762 759 756 753 750 748 746 743 739 736 734 733 732 732 729 733 718 723 719